Mount Airy, NC

9:57 PM EST on December 11, 2017 (GMT -0500)
Mount Airy-Surry County

Weather History for KMWK - February, 2013

Change the Weather History Date:

Tuesday, February 19, 2013

  Actual Average (KINT) Record (KINT)
Temperature  
Mean Temperature 43 °F -  
Max Temperature 54 °F 50 °F 72 °F (2014)
Min Temperature 34 °F 33 °F 5 °F (1968)
Degree Days  
Heating Degree Days 22    
Moisture  
Dew Point 26 °F    
Average Humidity 59    
Maximum Humidity 87    
Minimum Humidity 22    
Precipitation  
Precipitation 0.04 in - - ()
Sea Level Pressure  
Sea Level Pressure 29.97 in    
Wind  
Wind Speed 3 mph (WSW)    
Max Wind Speed 18 mph    
Max Gust Speed 29 mph    
Visibility 9 miles    
Events Rain , Snow    
Averages and records for this station are not official NWS values.
T = Trace of Precipitation, MM = Missing Value Source: NWS Daily Summary

Daily Weather History Graph

Daily Weather History Graph

Search for Another Location

Airport or City:

Trip Planner

Search our weather history database for the weather conditions in past years. The results will help you decide how hot, cold, wet, or windy it might be!

Date:

Astronomy

Feb. 19, 2013 Rise Set
Actual Time 7:05 AM EST 6:07 PM EST
Civil Twilight 6:38 AM EST 6:33 PM EST
Nautical Twilight 6:08 AM EST 7:03 PM EST
Astronomical Twilight 5:39 AM EST 7:33 PM EST
Moon 12:42 PM EST (2/19) 2:30 AM EST (2/19)
Length of Visible Light 11h 54m
Length of Day
11h 02m
Waxing Gibbous, 67% of the Moon is Illuminated
Feb 19
Waxing Gibbous
Feb 25
Full
Mar 4
Last Quarter
Mar 11
New
Mar 19
First Quarter

Hourly Weather History & Observations

Time (EST) Temp. Windchill Dew Point Humidity Pressure Visibility Wind Dir Wind Speed Gust Speed Precip Events Conditions
12:15 AM 37.6 °F - 23.0 °F 56% 30.15 in 10.0 mi Calm Calm - N/A   Clear
12:35 AM 37.0 °F - 23.5 °F 58% 30.15 in 10.0 mi Calm Calm - N/A   Clear
12:55 AM 36.7 °F 32.9 °F 23.4 °F 59% 30.14 in 10.0 mi SE 4.6 mph - N/A   Clear
1:15 AM 37.4 °F 33.8 °F 24.4 °F 60% 30.14 in 10.0 mi SSW 4.6 mph - N/A   Clear
1:35 AM 38.8 °F 36.5 °F 24.4 °F 56% 30.14 in 10.0 mi South 3.5 mph - N/A   Scattered Clouds
2:35 AM 37.8 °F - 23.7 °F 57% 30.09 in 10.0 mi Calm Calm - N/A   Scattered Clouds
3:15 AM 36.5 °F 33.9 °F 22.8 °F 58% 30.07 in 10.0 mi SSE 3.5 mph - N/A   Clear
3:35 AM 36.7 °F - 24.4 °F 61% 30.08 in 10.0 mi Calm Calm - N/A   Clear
3:55 AM 36.0 °F - 22.3 °F 58% 30.07 in 10.0 mi Calm Calm - N/A   Clear
4:55 AM 37.4 °F 34.9 °F 24.8 °F 60% 30.07 in 10.0 mi SW 3.5 mph - N/A   Overcast
5:15 AM 37.6 °F - 25.2 °F 61% 30.06 in 10.0 mi Calm Calm - N/A   Overcast
5:35 AM 37.4 °F - 25.0 °F 61% 30.05 in 10.0 mi Calm Calm - N/A   Overcast
5:55 AM 37.4 °F - 24.8 °F 60% 30.05 in 10.0 mi Calm Calm - N/A   Overcast
6:15 AM 37.4 °F - 24.8 °F 60% 30.05 in 10.0 mi Calm Calm - N/A   Overcast
6:35 AM 37.6 °F - 25.3 °F 61% 30.05 in 10.0 mi Calm Calm - N/A   Overcast
6:55 AM 37.8 °F - 25.0 °F 60% 30.04 in 10.0 mi Calm Calm - N/A   Overcast
7:15 AM 37.8 °F - 25.7 °F 62% 30.04 in 10.0 mi Calm Calm - N/A   Overcast
7:35 AM 37.8 °F - 26.8 °F 65% 30.04 in 5.0 mi Calm Calm - N/A Snow Light Snow
7:55 AM 36.7 °F - 25.9 °F 65% 30.04 in 2.5 mi Calm Calm - N/A Snow Light Snow
8:15 AM 35.1 °F - 25.2 °F 67% 30.04 in 5.0 mi Calm Calm - N/A Rain Light Rain
8:35 AM 34.7 °F - 23.9 °F 65% 30.03 in 7.0 mi Calm Calm - N/A   Overcast
8:55 AM 35.1 °F - 25.2 °F 67% 30.02 in 5.0 mi Calm Calm - N/A   Overcast
9:55 AM 36.9 °F 33.1 °F 32.0 °F 83% 29.98 in 10.0 mi SSE 4.6 mph - 0.03 in   Overcast
10:15 AM 36.9 °F - 32.4 °F 84% 29.97 in 10.0 mi Calm Calm - N/A   Overcast
10:35 AM 37.4 °F - 32.9 °F 84% 29.96 in 7.0 mi Calm Calm - N/A   Overcast
10:55 AM 37.6 °F 34.0 °F 33.6 °F 86% 29.97 in 5.0 mi SSW 4.6 mph - N/A   Light Drizzle
11:15 AM 37.8 °F 34.2 °F 33.8 °F 86% 29.96 in 5.0 mi SW 4.6 mph - N/A   Overcast
11:55 AM 38.7 °F 36.3 °F 34.9 °F 86% 29.93 in 4.0 mi WSW 3.5 mph - N/A   Overcast
12:15 PM 39.4 °F 37.2 °F 35.6 °F 86% 29.92 in 4.0 mi South 3.5 mph - 0.01 in   Overcast
12:35 PM 40.1 °F 38.0 °F 36.1 °F 86% 29.90 in 5.0 mi SW 3.5 mph - 0.01 in   Overcast
1:15 PM 41.0 °F 39.0 °F 37.2 °F 86% 29.88 in 7.0 mi West 3.5 mph - N/A   Overcast
1:35 PM 41.9 °F 40.0 °F 38.3 °F 87% 29.87 in 7.0 mi SW 3.5 mph - N/A   Overcast
1:55 PM 42.6 °F 40.9 °F 38.7 °F 86% 29.86 in 10.0 mi SW 3.5 mph - N/A   Overcast
2:15 PM 43.9 °F - 40.1 °F 87% 29.85 in 10.0 mi Calm Calm - N/A   Overcast
2:35 PM 45.0 °F - 40.6 °F 85% 29.84 in 10.0 mi Calm Calm - N/A   Overcast
2:55 PM 46.9 °F - 41.5 °F 81% 29.83 in 10.0 mi SSW 5.8 mph - N/A   Overcast
3:15 PM 49.8 °F - 44.8 °F 83% 29.83 in 10.0 mi SW 6.9 mph - N/A   Mostly Cloudy
3:35 PM 52.2 °F - 44.4 °F 75% 29.82 in 10.0 mi SW 6.9 mph - N/A   Scattered Clouds
3:55 PM 52.7 °F - 43.2 °F 70% 29.82 in 10.0 mi SSW 6.9 mph - N/A   Scattered Clouds
4:15 PM 52.9 °F - 43.3 °F 70% 29.82 in 10.0 mi South 4.6 mph - N/A   Scattered Clouds
4:35 PM 51.4 °F - 42.3 °F 71% 29.83 in 10.0 mi WSW 4.6 mph - N/A   Scattered Clouds
5:15 PM 52.3 °F - 28.9 °F 41% 29.84 in 10.0 mi WNW 11.5 mph 21.9 mph N/A   Scattered Clouds
5:35 PM 49.6 °F - 26.1 °F 40% 29.86 in 10.0 mi West 10.4 mph 21.9 mph N/A   Clear
5:55 PM 49.1 °F - 24.6 °F 38% 29.87 in 10.0 mi West 18.4 mph 28.8 mph N/A   Scattered Clouds
6:15 PM 48.2 °F - 21.9 °F 36% 29.88 in 10.0 mi West 9.2 mph 28.8 mph N/A   Scattered Clouds
7:55 PM 46.2 °F 40.8 °F 14.5 °F 28% 29.92 in 10.0 mi West 11.5 mph 19.6 mph N/A   Clear
8:15 PM 45.5 °F 41.3 °F 13.3 °F 27% 29.93 in 10.0 mi West 8.1 mph 21.9 mph N/A   Clear
8:35 PM 44.6 °F 39.7 °F 11.5 °F 26% 29.93 in 10.0 mi West 9.2 mph 17.3 mph N/A   Clear
9:15 PM 43.3 °F 38.6 °F 8.1 °F 24% 29.94 in 10.0 mi WNW 8.1 mph 19.6 mph N/A   Clear
9:35 PM 43.2 °F 37.0 °F 7.3 °F 23% 29.94 in 10.0 mi West 11.5 mph 19.6 mph N/A   Clear
9:55 PM 43.0 °F 36.8 °F 6.3 °F 22% 29.95 in 10.0 mi West 11.5 mph 23.0 mph N/A   Clear
10:15 PM 42.8 °F 36.2 °F 6.3 °F 22% 29.95 in 10.0 mi West 12.7 mph 24.2 mph N/A   Clear
10:35 PM 41.9 °F 35.0 °F 6.6 °F 23% 29.96 in 10.0 mi West 12.7 mph 20.7 mph N/A   Clear
10:55 PM 41.0 °F 35.8 °F 7.3 °F 25% 29.96 in 10.0 mi West 8.1 mph 16.1 mph N/A   Clear
11:15 PM 40.3 °F 34.4 °F 8.1 °F 27% 29.96 in 10.0 mi WNW 9.2 mph 17.3 mph N/A   Clear
11:35 PM 39.4 °F 33.8 °F 8.8 °F 28% 29.97 in 10.0 mi West 8.1 mph - N/A   Clear